This is the latest recevied weather packets stored in our database for station/object KK6LVQ-13. If no packets are shown the sender has not sent any weather packets the latest 10 day(s).
| Time | Temp. | Humidity | Pressure | Rain* | Wind** | Luminosity | Snow |
|---|---|---|---|---|---|---|---|
| 1777561806 | 8.33° C | 99% | 1021 hPa | 0 mm | - | 105 W/m² | - |
| 1777561503 | 8.33° C | 99% | 1020.8 hPa | 0 mm | - | 98 W/m² | - |
| 1777561197 | 7.78° C | 99% | 1020.7 hPa | 0 mm | - | 87 W/m² | - |
| 1777560892 | 7.78° C | 99% | 1020.9 hPa | 0 mm | - | 34 W/m² | - |
| 1777560590 | 7.22° C | 99% | 1020.7 hPa | 0 mm | - | 34 W/m² | - |
| 1777560287 | 7.22° C | 99% | 1020.6 hPa | 0 mm | - | 32 W/m² | - |
| 1777559984 | 6.67° C | 99% | 1020.5 hPa | 0 mm | - | 31 W/m² | - |
| 1777559679 | 6.67° C | 99% | 1020.5 hPa | 0 mm | - | 30 W/m² | - |
| 1777559377 | 6.67° C | 99% | 1020.6 hPa | 0 mm | - | 29 W/m² | - |
| 1777559073 | 6.67° C | 99% | 1020.6 hPa | 0 mm | - | 28 W/m² | - |
| 1777558768 | 6.67° C | 99% | 1020.6 hPa | 0 mm | - | 28 W/m² | - |
| 1777558464 | 6.67° C | 99% | 1020.6 hPa | 0 mm | - | 32 W/m² | - |
| 1777558161 | 6.11° C | 99% | 1020.5 hPa | 0 mm | - | 40 W/m² | - |
| 1777557857 | 6.11° C | 99% | 1020.7 hPa | 0 mm | - | 36 W/m² | - |
| 1777557555 | 6.11° C | 99% | 1020.5 hPa | 0 mm | - | 30 W/m² | - |
| 1777557250 | 6.11° C | 99% | 1020.3 hPa | 0 mm | - | 28 W/m² | - |
| 1777556946 | 5.56° C | 99% | 1020.5 hPa | 0 mm | - | 23 W/m² | - |
| 1777556642 | 5.56° C | 99% | 1020.5 hPa | 0 mm | - | 20 W/m² | - |
| 1777556336 | 5.56° C | 99% | 1020.6 hPa | 0 mm | - | 15 W/m² | - |
| 1777556033 | 5.56° C | 99% | 1020.7 hPa | 0 mm | - | 11 W/m² | - |
| 1777555728 | 5.56° C | 99% | 1020.5 hPa | 0 mm | - | 8 W/m² | - |
| 1777555425 | 5.56° C | 99% | 1020.6 hPa | 0 mm | - | 5 W/m² | - |
| 1777555121 | 5.56° C | 99% | 1020.6 hPa | 0 mm | - | 4 W/m² | - |
| 1777554819 | 5.56° C | 99% | 1020.6 hPa | 0 mm | - | 2 W/m² | - |
| 1777554515 | 5.56° C | 99% | 1020.5 hPa | 0 mm | - | 1 W/m² | - |
* Rain latest hour (hover to see other rain measurements)
** Current wind speed in m/s (hover to see current wind gust speed)